Location: Hochstatterhof
(48.7256°N, 10.3487°E)
Time: 01:48:06
(UTC+00:00)

NOSS 2-2 (C) - Pass Details

Date: 26 September 2023
Orbit: 413 x 1757 km, 63.3° (Epoch: 01 December)

Event Time Altitude Azimuth Distance (km) Brightness Sun altitude
Exits shadow 03:16:56 21° 305° (NW) 1,547 5.3 -19.1°
Maximum altitude 03:20:05 58° 232° (SW) 925 4.1 -18.6°
Drops below altitude 10° 03:26:27 10° 156° (SSE) 2,847 7.0 -17.6°
Sets 03:29:36 0° 153° (SSE) 4,035 7.8 -17.1°
